N0RAP Weather Reports


time (UTC)temp
C
wind
direction
speed
KPH
gust
KPH
rain 1hr
cm
rain 24hr
cm
rain mn
cm
humidity
%
barometer
mb
20260505083049 3 0 0.0 0.0 0.00 0.10 0.03 93 1015.4
20260505081554 3 0 0.0 0.0 0.00 0.10 0.03 93 1015.6
20260505080049 3 0 0.0 0.0 0.00 0.10 0.03 93 1015.6
20260505074548 3 0 0.0 1.6 0.00 0.10 0.03 93 1015.7
20260505073049 3 49 0.0 3.2 0.00 0.10 0.03 93 1015.6
20260505071551 3 28 0.0 1.6 0.03 0.10 0.03 93 1015.8
20260505070043 4 0 0.0 1.6 0.03 0.10 0.03 93 1016.1
20260505064548 4 0 0.0 1.6 0.03 0.10 0.03 93 1016.0
20260505063042 4 349 0.0 3.2 0.05 0.10 0.03 92 1016.1
20260505061546 4 45 1.6 3.2 0.03 0.08 0.00 92 1015.9
20260505060042 4 0 1.6 4.8 0.03 0.08 0.00 91 1016.2
20260505054553 4 0 0.0 3.2 0.03 0.08 0.08 90 1016.5
20260505053054 5 0 0.0 3.2 0.00 0.05 0.05 86 1016.5
20260505051544 5 0 0.0 4.8 0.00 0.05 0.05 85 1016.5
20260505041543 5 25 0.0 3.2 0.00 0.05 0.05 82 1015.6
20260505040052 5 24 0.0 6.4 0.00 0.05 0.05 82 1015.5
20260505034546 5 353 1.6 8.0 0.00 0.05 0.05 83 1015.6
20260505033048 5 0 1.6 9.7 0.00 0.05 0.05 83 1015.6
20260505031542 5 347 3.2 11.3 0.00 0.05 0.05 82 1015.5
20260505030043 5 320 3.2 8.0 0.00 0.05 0.05 82 1015.7
20260505024547 5 0 1.6 3.2 0.03 0.05 0.05 85 1015.6
20260505023055 5 0 0.0 6.4 0.05 0.05 0.05 84 1015.4
20260505021545 5 0 0.0 0.0 0.05 0.05 0.05 84 1015.5
20260505020046 5 0 0.0 3.2 0.05 0.05 0.05 82 1015.6
20260505014550 6 0 0.0 9.7 0.03 0.03 0.03 78 1015.6
20260505013044 8 278 3.2 8.0 0.00 0.00 0.00 63 1015.4
20260505011554 8 283 1.6 9.7 0.00 0.00 0.00 56 1015.4
20260505010051 9 285 4.8 14.5 0.00 0.00 0.00 54 1014.8
20260505004541 10 74 3.2 9.7 0.00 0.00 0.00 50 1013.9
20260505003046 10 307 6.4 20.9 0.00 0.00 0.00 47 1013.8
20260505001550 11 20 1.6 12.9 0.00 0.00 0.00 41 1013.5
20260505000044 12 357 3.2 12.9 0.00 0.00 0.00 42 1013.6
20260504234543 13 36 3.2 14.5 0.00 0.00 0.00 38 1013.3
20260504233043 13 1 3.2 16.1 0.00 0.00 0.00 38 1013.6
20260504231541 13 356 4.8 11.3 0.00 0.00 0.00 38 1013.5
20260504230047 13 329 0.0 3.2 0.00 0.00 0.00 40 1013.6
20260504224543 13 0 0.0 8.0 0.00 0.00 0.00 38 1013.6
20260504223040 14 43 0.0 3.2 0.00 0.00 0.00 34 1013.5
20260504221541 14 84 0.0 6.4 0.00 0.00 0.00 31 1013.3
20260504220048 14 207 1.6 9.7 0.00 0.00 0.00 37 1013.3
20260504214548 13 148 4.8 17.7 0.00 0.00 0.00 39 1014.0
20260504213050 15 35 3.2 11.3 0.00 0.00 0.00 29 1013.1
20260504211542 15 2 1.6 8.0 0.00 0.00 0.00 26 1013.0
20260504210051 16 345 0.0 6.4 0.00 0.00 0.00 26 1013.0
20260504204539 17 33 1.6 9.7 0.00 0.00 0.00 23 1013.2
20260504203038 17 22 1.6 12.9 0.00 0.00 0.00 25 1013.5
20260504201538 16 331 1.6 9.7 0.00 0.00 0.00 23 1013.8
20260504200049 16 66 1.6 8.0 0.00 0.00 0.00 24 1013.8
20260504194545 15 54 1.6 6.4 0.00 0.00 0.00 25 1013.8
20260504193040 16 333 6.4 12.9 0.00 0.00 0.00 22 1013.7
20260504191551 17 114 1.6 11.3 0.00 0.00 0.00 21 1013.9
20260504190043 18 214 3.2 8.0 0.00 0.00 0.00 20 1014.0
20260504184554 17 68 1.6 9.7 0.00 0.00 0.00 22 1014.2
20260504183049 17 163 3.2 14.5 0.00 0.00 0.00 25 1014.6
20260504181546 17 65 3.2 9.7 0.00 0.00 0.00 22 1014.7
20260504180039 15 293 0.0 4.8 0.00 0.00 0.00 28 1014.8
20260504174547 15 271 1.6 11.3 0.00 0.00 0.00 26 1015.1
20260504173043 15 318 3.2 9.7 0.00 0.00 0.00 31 1015.4
20260504171542 15 310 4.8 11.3 0.00 0.00 0.00 31 1015.6